TimeEDT,TemperatureF,Dew PointF,Humidity,Sea Level PressureIn,VisibilityMPH,Wind Direction,Wind SpeedMPH,Gust SpeedMPH,PrecipitationIn,Events,Conditions,WindDirDegrees,DateUTC
12:52 AM,77.0,69.1,76,29.99,10.0,Calm,Calm,-,N/A,,Partly Cloudy,0,2013-09-12 04:52:00
1:52 AM,75.0,69.1,82,29.98,10.0,SSE,4.6,-,N/A,,Clear,160,2013-09-12 05:52:00
2:52 AM,75.0,69.1,82,29.96,10.0,SSW,6.9,-,N/A,,Clear,200,2013-09-12 06:52:00
3:52 AM,73.0,68.0,84,29.96,10.0,SSW,5.8,-,N/A,,Clear,200,2013-09-12 07:52:00
4:52 AM,73.0,68.0,84,29.95,10.0,Calm,Calm,-,N/A,,Clear,0,2013-09-12 08:52:00
5:52 AM,72.0,68.0,87,29.95,8.0,South,4.6,-,N/A,,Partly Cloudy,180,2013-09-12 09:52:00
6:52 AM,71.1,68.0,90,29.96,6.0,Calm,Calm,-,N/A,,Scattered Clouds,0,2013-09-12 10:52:00
7:52 AM,73.0,69.1,87,29.96,6.0,South,5.8,-,N/A,,Mostly Cloudy,180,2013-09-12 11:52:00
8:52 AM,75.0,69.1,82,29.94,7.0,SSW,8.1,-,N/A,,Scattered Clouds,200,2013-09-12 12:52:00
9:52 AM,80.1,70.0,71,29.93,9.0,South,5.8,-,N/A,,Scattered Clouds,180,2013-09-12 13:52:00
10:52 AM,84.9,70.0,61,29.91,10.0,South,6.9,-,N/A,,Scattered Clouds,190,2013-09-12 14:52:00
11:52 AM,88.0,70.0,55,29.89,10.0,Variable,6.9,-,N/A,,Mostly Cloudy,0,2013-09-12 15:52:00
12:52 PM,89.1,69.1,52,29.86,10.0,SSW,12.7,-,N/A,,Mostly Cloudy,210,2013-09-12 16:52:00
1:52 PM,91.9,66.0,42,29.83,10.0,South,8.1,18.4,N/A,,Scattered Clouds,190,2013-09-12 17:52:00
2:52 PM,91.9,66.0,42,29.79,10.0,SW,11.5,18.4,N/A,,Mostly Cloudy,220,2013-09-12 18:52:00
3:52 PM,87.1,68.0,53,29.76,10.0,WSW,16.1,24.2,0.00,Rain-Thunderstorm,Light Thunderstorms and Rain,240,2013-09-12 19:52:00
4:52 PM,73.0,68.0,84,29.80,7.0,ESE,6.9,-,0.03,Rain-Thunderstorm,Light Thunderstorms and Rain,110,2013-09-12 20:52:00
5:33 PM,73.4,68.0,83,29.79,10.0,SSE,5.8,-,0.00,,Mostly Cloudy,150,2013-09-12 21:33:00
5:52 PM,73.0,69.1,87,29.81,8.0,West,9.2,-,0.00,Rain,Light Rain,260,2013-09-12 21:52:00
6:01 PM,73.4,68.0,83,29.82,8.0,West,4.6,-,0.00,Rain-Thunderstorm,Light Thunderstorms and Rain,270,2013-09-12 22:01:00
6:37 PM,71.6,68.0,88,29.78,9.0,South,5.8,-,0.01,,Mostly Cloudy,180,2013-09-12 22:37:00
6:52 PM,71.1,68.0,90,29.78,8.0,SSW,4.6,-,0.01,,Mostly Cloudy,200,2013-09-12 22:52:00
7:52 PM,71.1,68.0,90,29.77,9.0,Calm,Calm,-,N/A,,Overcast,0,2013-09-12 23:52:00
8:52 PM,71.1,68.0,90,29.79,10.0,WNW,4.6,-,N/A,,Overcast,290,2013-09-13 00:52:00
9:52 PM,70.0,66.9,90,29.78,9.0,South,3.5,-,N/A,,Mostly Cloudy,190,2013-09-13 01:52:00
10:52 PM,71.1,66.9,87,29.78,10.0,Calm,Calm,-,N/A,,Mostly Cloudy,0,2013-09-13 02:52:00
11:52 PM,73.9,64.9,73,29.76,10.0,WNW,5.8,-,N/A,,Overcast,290,2013-09-13 03:52:00